Black River Falls, WI

2:11 PM CDT on July 28, 2016 (GMT -0500)
Black River Falls Area

Weather History for KBCK - November, 2013

Change the Weather History Date:

Saturday, November 23, 2013

  Actual Average (KLSE) Record (KLSE)
Temperature  
Mean Temperature 10 °F 32 °F  
Max Temperature 23 °F 39 °F 61 °F (1931)
Min Temperature -2 °F 24 °F -2 °F (1950)
Degree Days  
Heating Degree Days 54 33  
Month to date heating degree days 623  
Since 1 July heating degree days 1251  
Cooling Degree Days 0 0  
Month to date cooling degree days 0  
Year to date cooling degree days 782  
Moisture  
Dew Point 1 °F    
Average Humidity 64    
Maximum Humidity 85    
Minimum Humidity 43    
Precipitation  
Precipitation 0.00 in 0.06 in 1.42 in (1999)
Month to date precipitation 1.55  
Year to date precipitation 31.24  
Snow  
Snow 0.00 in 0.20 in 13.00 in (1991)
Month to date snowfall 2.4  
Since 1 July snowfall 2.6  
Snow Depth -    
Sea Level Pressure  
Sea Level Pressure 30.67 in    
Wind  
Wind Speed 8 mph (NW)    
Max Wind Speed 14 mph    
Max Gust Speed 24 mph    
Visibility 10 miles    
Events Snow    
T = Trace of Precipitation, MM = Missing Value Source: NWS Daily Summary

Daily Weather History Graph

Daily Weather History Graph

Search for Another Location

Airport or City:

Trip Planner

Search our weather history database for the weather conditions in past years. The results will help you decide how hot, cold, wet, or windy it might be!

Date:

Astronomy

Nov. 23, 2013 Rise Set
Actual Time 7:09 AM CST 4:29 PM CST
Civil Twilight 6:37 AM CST 5:01 PM CST
Nautical Twilight 6:02 AM CST 5:37 PM CST
Astronomical Twilight 5:27 AM CST 6:12 PM CST
Moon 10:03 PM CST (11/23) 11:22 AM CST (11/23)
Length of Visible Light 10h 24m
Length of Day
9h 20m
Waning Gibbous, 69% of the Moon is Illuminated
Nov 23
Waning Gibbous
Nov 25
Last Quarter
Dec 2
New
Dec 9
First Quarter
Dec 17
Full

Hourly Weather History & Observations

Time (CST) Temp. Windchill Dew Point Humidity Pressure Visibility Wind Dir Wind Speed Gust Speed Precip Events Conditions
12:15 AM 23.5 °F 13.7 °F 14.5 °F 69% 30.46 in 7.0 mi NW 9.2 mph - N/A Snow Light Snow
12:35 AM 22.6 °F 11.9 °F 14.0 °F 69% 30.47 in 7.0 mi NW 10.4 mph 17.3 mph N/A Snow Light Snow
12:55 AM 21.7 °F 10.2 °F 8.6 °F 57% 30.48 in 10.0 mi NW 11.5 mph 24.2 mph N/A   Overcast
1:15 AM 19.9 °F 6.7 °F 7.7 °F 59% 30.49 in 10.0 mi NW 13.8 mph 17.3 mph N/A   Scattered Clouds
1:35 AM 20.3 °F 7.7 °F 7.7 °F 58% 30.50 in 10.0 mi NNW 12.7 mph 17.3 mph N/A   Mostly Cloudy
1:55 AM 19.9 °F 10.1 °F 10.4 °F 67% 30.51 in 10.0 mi NNW 8.1 mph 16.1 mph N/A   Overcast
2:15 AM 19.8 °F 7.7 °F 10.2 °F 67% 30.52 in 7.0 mi NNW 11.5 mph 17.3 mph N/A Snow Light Snow
2:35 AM 19.2 °F 7.0 °F 7.9 °F 61% 30.53 in 10.0 mi NNW 11.5 mph 17.3 mph N/A   Overcast
2:55 AM 18.0 °F 6.1 °F 4.8 °F 57% 30.54 in 10.0 mi NNW 10.4 mph 21.9 mph N/A   Overcast
3:15 AM 16.2 °F 3.2 °F 3.6 °F 58% 30.55 in 10.0 mi NNW 11.5 mph 17.3 mph N/A   Overcast
3:35 AM 15.4 °F 2.3 °F 3.7 °F 60% 30.56 in 10.0 mi NW 11.5 mph 16.1 mph N/A   Overcast
3:55 AM 14.9 °F 0.9 °F 5.0 °F 65% 30.57 in 7.0 mi NW 12.7 mph 23.0 mph N/A Snow Light Snow
4:15 AM 14.0 °F -0.2 °F 2.7 °F 61% 30.58 in 10.0 mi NNW 12.7 mph 19.6 mph N/A   Mostly Cloudy
4:35 AM 13.1 °F 2.8 °F -0.2 °F 55% 30.59 in 10.0 mi NW 6.9 mph - N/A   Scattered Clouds
4:55 AM 12.6 °F -1.4 °F 1.9 °F 63% 30.61 in 10.0 mi NW 11.5 mph 21.9 mph N/A   Clear
5:15 AM 11.8 °F 0.3 °F 1.0 °F 62% 30.61 in 10.0 mi NW 8.1 mph 16.1 mph N/A   Clear
5:35 AM 11.1 °F 0.4 °F 1.2 °F 64% 30.62 in 10.0 mi NW 6.9 mph - N/A   Clear
5:55 AM 10.8 °F 0.0 °F 1.4 °F 66% 30.62 in 10.0 mi NW 6.9 mph - N/A   Clear
6:15 AM 10.4 °F -0.4 °F 1.6 °F 68% 30.63 in 10.0 mi NW 6.9 mph - N/A   Clear
6:35 AM 10.2 °F -0.6 °F 1.8 °F 69% 30.63 in 10.0 mi NNW 6.9 mph - N/A   Clear
6:55 AM 10.0 °F -1.9 °F 1.9 °F 70% 30.64 in 10.0 mi NW 8.1 mph - N/A   Clear
7:15 AM 9.9 °F 0.2 °F 1.9 °F 70% 30.66 in 10.0 mi NW 5.8 mph - N/A   Clear
7:35 AM 10.0 °F -0.9 °F 2.1 °F 70% 30.67 in 10.0 mi NW 6.9 mph - N/A   Clear
7:55 AM 10.8 °F -1.1 °F 2.1 °F 68% 30.68 in 10.0 mi NW 8.1 mph - N/A   Clear
8:15 AM 11.3 °F -1.3 °F 1.9 °F 66% 30.70 in 10.0 mi NW 9.2 mph - N/A   Clear
8:35 AM 12.2 °F -1.8 °F 1.8 °F 63% 30.70 in 10.0 mi NW 11.5 mph 16.1 mph N/A   Clear
8:55 AM 13.1 °F -0.7 °F 1.6 °F 60% 30.71 in 10.0 mi NW 11.5 mph 17.3 mph N/A   Clear
9:15 AM 13.8 °F 0.2 °F 1.2 °F 57% 30.72 in 10.0 mi NNW 11.5 mph 19.6 mph N/A   Scattered Clouds
9:35 AM 14.5 °F 3.6 °F 1.2 °F 56% 30.73 in 10.0 mi NW 8.1 mph 18.4 mph N/A   Scattered Clouds
9:55 AM 14.7 °F 2.9 °F 1.2 °F 55% 30.73 in 10.0 mi WNW 9.2 mph 16.1 mph N/A   Scattered Clouds
10:15 AM 15.1 °F 2.5 °F 1.6 °F 55% 30.73 in 10.0 mi WNW 10.4 mph - N/A   Scattered Clouds
10:35 AM 15.4 °F 3.0 °F 2.3 °F 56% 30.73 in 10.0 mi NW 10.4 mph 16.1 mph N/A   Scattered Clouds
11:15 AM 16.2 °F 3.9 °F 2.1 °F 54% 30.72 in 10.0 mi NNW 10.4 mph 17.3 mph N/A   Mostly Cloudy
11:35 AM 16.0 °F 2.3 °F 1.4 °F 53% 30.73 in 10.0 mi NW 12.7 mph - N/A   Mostly Cloudy
11:55 AM 17.4 °F 4.7 °F 2.5 °F 52% 30.72 in 10.0 mi NNW 11.5 mph 17.3 mph N/A   Overcast
12:15 PM 16.9 °F 2.8 °F 1.8 °F 52% 30.72 in 10.0 mi NW 13.8 mph 18.4 mph N/A   Mostly Cloudy
12:35 PM 17.4 °F 7.1 °F 1.2 °F 49% 30.72 in 10.0 mi NNW 8.1 mph - N/A   Mostly Cloudy
12:55 PM 18.5 °F 7.5 °F 0.9 °F 46% 30.72 in 10.0 mi NNW 9.2 mph 16.1 mph N/A   Scattered Clouds
1:15 PM 18.1 °F 7.9 °F 1.2 °F 48% 30.71 in 10.0 mi WNW 8.1 mph - N/A   Mostly Cloudy
1:35 PM 18.7 °F 7.0 °F 1.8 °F 48% 30.71 in 10.0 mi WNW 10.4 mph 16.1 mph N/A   Mostly Cloudy
1:55 PM 18.5 °F 6.1 °F 0.3 °F 45% 30.71 in 10.0 mi NW 11.5 mph 16.1 mph N/A   Scattered Clouds
2:15 PM 18.1 °F 5.6 °F 0.7 °F 47% 30.71 in 10.0 mi WNW 11.5 mph 18.4 mph N/A   Scattered Clouds
2:35 PM 18.0 °F 6.9 °F -0.2 °F 45% 30.71 in 10.0 mi NW 9.2 mph - N/A   Scattered Clouds
2:55 PM 17.8 °F 7.5 °F -0.9 °F 44% 30.71 in 10.0 mi NW 8.1 mph - N/A   Clear
3:15 PM 18.0 °F 8.7 °F -1.3 °F 43% 30.71 in 10.0 mi NW 6.9 mph - N/A   Clear
3:35 PM 17.6 °F 9.3 °F -1.3 °F 44% 30.72 in 10.0 mi WNW 5.8 mph - N/A   Clear
3:55 PM 17.1 °F 5.8 °F -0.2 °F 47% 30.72 in 10.0 mi WNW 9.2 mph - N/A   Clear
4:15 PM 16.2 °F 5.5 °F 0.3 °F 50% 30.72 in 10.0 mi WNW 8.1 mph - N/A   Clear
4:35 PM 14.9 °F 4.0 °F 0.5 °F 53% 30.72 in 10.0 mi WNW 8.1 mph - N/A   Clear
4:55 PM 14.7 °F 2.9 °F 0.1 °F 53% 30.72 in 10.0 mi WNW 9.2 mph - N/A   Clear
5:15 PM 14.0 °F 6.5 °F 0.1 °F 54% 30.72 in 10.0 mi WNW 4.6 mph - N/A   Clear
5:35 PM 13.1 °F 7.1 °F -0.4 °F 55% 30.72 in 10.0 mi WNW 3.5 mph - N/A   Clear
5:55 PM 11.1 °F 4.9 °F 0.5 °F 62% 30.72 in 10.0 mi WNW 3.5 mph - N/A   Clear
6:15 PM 8.8 °F - 0.1 °F 68% 30.71 in 10.0 mi Calm Calm - N/A   Clear
6:35 PM 4.3 °F - -0.4 °F 81% 30.71 in 10.0 mi Calm Calm - N/A   Clear
6:55 PM 2.8 °F - -1.1 °F 84% 30.71 in 10.0 mi Calm Calm - N/A   Clear
7:15 PM 2.1 °F - -1.7 °F 84% 30.71 in 10.0 mi Calm Calm - N/A   Clear
7:35 PM 0.7 °F - -2.9 °F 85% 30.72 in 10.0 mi Calm Calm - N/A   Clear
7:55 PM -0.4 °F - -4.2 °F 84% 30.72 in 10.0 mi Calm Calm - N/A   Clear
8:15 PM -0.0 °F - -4.0 °F 83% 30.72 in 10.0 mi Calm Calm - N/A   Clear
8:35 PM -0.8 °F - -4.4 °F 85% 30.72 in 10.0 mi Calm Calm - N/A   Clear
8:55 PM -1.5 °F - -5.3 °F 84% 30.71 in 10.0 mi Calm Calm - N/A   Clear
9:15 PM -1.3 °F - -5.1 °F 84% 30.71 in 10.0 mi Calm Calm - N/A   Clear
9:35 PM -1.5 °F - -5.3 °F 84% 30.71 in 10.0 mi Calm Calm - N/A   Clear
9:55 PM -1.3 °F - -5.3 °F 83% 30.71 in 10.0 mi Calm Calm - N/A   Clear
10:15 PM -2.4 °F - -6.7 °F 82% 30.71 in 10.0 mi Calm Calm - N/A   Clear
10:35 PM -1.5 °F - -5.3 °F 84% 30.71 in 10.0 mi Calm Calm - N/A   Clear
10:55 PM -2.7 °F -11.0 °F -6.9 °F 82% 30.70 in 10.0 mi SSE 3.5 mph - N/A   Clear
11:15 PM -2.7 °F -11.0 °F -6.7 °F 83% 30.70 in 10.0 mi South 3.5 mph - N/A   Clear
11:35 PM -2.6 °F - -6.9 °F 82% 30.70 in 10.0 mi Calm Calm - N/A   Clear
11:55 PM -2.6 °F - -7.1 °F 81% 30.70 in 10.0 mi Calm Calm - N/A   Clear